| time (UTC) | temp F | wind direction | speed knots | gust knots | rain 1hr in | rain 24hr in | rain mn in | humidity % | barometer mb |
| 20260505022526 | 69 | 343 | 3.5 | 8.7 | 0.00 | 0.00 | 0.00 | 89 | 1015.6 |
| 20260505022026 | 69 | 360 | 3.5 | 8.7 | 0.00 | 0.00 | 0.00 | 89 | 1015.7 |
| 20260505021537 | 69 | 18 | 4.3 | 9.6 | 0.00 | 0.00 | 0.00 | 89 | 1015.6 |
| 20260505021026 | 69 | 317 | 2.6 | 9.6 | 0.00 | 0.00 | 0.00 | 89 | 1015.7 |
| 20260505020525 | 69 | 349 | 3.5 | 7.8 | 0.00 | 0.00 | 0.00 | 89 | 1015.6 |
| 20260505020035 | 69 | 10 | 3.5 | 7.8 | 0.00 | 0.00 | 0.00 | 89 | 1015.7 |
| 20260505015529 | 69 | 346 | 2.6 | 7.0 | 0.00 | 0.00 | 0.00 | 89 | 1015.6 |
| 20260505015030 | 69 | 345 | 2.6 | 7.8 | 0.00 | 0.00 | 0.00 | 89 | 1015.6 |
| 20260505014544 | 69 | 10 | 2.6 | 9.6 | 0.00 | 0.00 | 0.00 | 89 | 1015.6 |
| 20260505013525 | 69 | 347 | 3.5 | 10.4 | 0.00 | 0.00 | 0.00 | 89 | 1015.5 |
| 20260505013043 | 69 | 2 | 1.7 | 4.3 | 0.00 | 0.00 | 0.00 | 89 | 1015.5 |
| 20260505012529 | 0 | 0.0 | 0.0 | 0.00 | 0.00 | 0.00 | 1015.4 | ||
| 20260505012026 | 0 | 0.0 | 0.0 | 0.00 | 0.00 | 0.00 | 1015.5 | ||
| 20260505011550 | 0 | 0.0 | 0.0 | 0.00 | 0.00 | 0.00 | 1015.6 | ||
| 20260505011026 | 0 | 0.0 | 0.0 | 0.00 | 0.00 | 0.00 | 1015.6 | ||
| 20260505010528 | 68 | 2.6 | 7.0 | 0.00 | 0.00 | 0.00 | 89 | 1015.5 | |
| 20260505010038 | 68 | 360 | 5.2 | 7.8 | 0.00 | 0.00 | 0.00 | 89 | 1015.5 |
| 20260505005532 | 68 | 355 | 3.5 | 7.8 | 0.00 | 0.00 | 0.00 | 89 | 1015.5 |
| 20260505005029 | 68 | 0 | 1.7 | 9.6 | 0.00 | 0.00 | 0.00 | 89 | 1015.6 |
| 20260505004536 | 68 | 348 | 2.6 | 9.6 | 0.00 | 0.00 | 0.00 | 89 | 1015.5 |
| 20260505004027 | 68 | 351 | 2.6 | 8.7 | 0.00 | 0.00 | 0.00 | 89 | 1015.4 |
| 20260505003529 | 68 | 357 | 3.5 | 7.8 | 0.00 | 0.00 | 0.00 | 90 | 1015.4 |
| 20260505003035 | 68 | 360 | 2.6 | 7.8 | 0.00 | 0.00 | 0.00 | 90 | 1015.5 |
| 20260505002527 | 68 | 4 | 3.5 | 6.1 | 0.00 | 0.00 | 0.00 | 90 | 1015.5 |
| 20260505002028 | 68 | 358 | 2.6 | 6.1 | 0.00 | 0.00 | 0.00 | 90 | 1015.5 |
| 20260505001535 | 68 | 2 | 2.6 | 7.0 | 0.00 | 0.00 | 0.00 | 90 | 1015.5 |
| 20260505001028 | 68 | 355 | 2.6 | 7.8 | 0.00 | 0.00 | 0.00 | 90 | 1015.4 |
| 20260505000548 | 68 | 355 | 2.6 | 7.8 | 0.00 | 0.00 | 0.00 | 91 | 1015.6 |
| 20260505000040 | 68 | 16 | 3.5 | 7.0 | 0.00 | 0.00 | 0.00 | 91 | 1015.4 |
| 20260504235528 | 67 | 10 | 2.6 | 6.1 | 0.00 | 0.00 | 0.00 | 91 | 1015.4 |
| 20260504235028 | 67 | 354 | 1.7 | 6.1 | 0.00 | 0.00 | 0.00 | 92 | 1015.5 |
| 20260504234538 | 67 | 341 | 1.7 | 5.2 | 0.00 | 0.00 | 0.00 | 92 | 1015.5 |
| 20260504234028 | 67 | 352 | 1.7 | 5.2 | 0.00 | 0.00 | 0.00 | 92 | 1015.4 |
| 20260504233528 | 67 | 351 | 2.6 | 5.2 | 0.00 | 0.00 | 0.00 | 92 | 1015.4 |
| 20260504233039 | 67 | 23 | 1.7 | 5.2 | 0.00 | 0.00 | 0.00 | 92 | 1015.2 |
| 20260504232528 | 67 | 6 | 1.7 | 5.2 | 0.00 | 0.00 | 0.00 | 92 | 1015.2 |
| 20260504232027 | 67 | 10 | 1.7 | 5.2 | 0.00 | 0.00 | 0.00 | 92 | 1015.3 |
| 20260504231538 | 67 | 4 | 0.9 | 5.2 | 0.00 | 0.00 | 0.00 | 92 | 1015.3 |
| 20260504231029 | 67 | 11 | 1.7 | 5.2 | 0.00 | 0.00 | 0.00 | 93 | 1015.3 |
| 20260504230527 | 67 | 14 | 1.7 | 5.2 | 0.00 | 0.00 | 0.00 | 93 | 1015.2 |
| 20260504230035 | 67 | 19 | 2.6 | 5.2 | 0.00 | 0.00 | 0.00 | 93 | 1015.1 |
| 20260504225527 | 67 | 29 | 1.7 | 4.3 | 0.00 | 0.00 | 0.00 | 93 | 1015.0 |
| 20260504225028 | 67 | 16 | 1.7 | 5.2 | 0.00 | 0.00 | 0.00 | 93 | 1015.1 |
| 20260504224545 | 67 | 19 | 2.6 | 5.2 | 0.00 | 0.00 | 0.00 | 93 | 1015.0 |
| 20260504224028 | 66 | 36 | 2.6 | 6.1 | 0.00 | 0.00 | 0.00 | 94 | 1015.0 |
| 20260504223528 | 66 | 39 | 1.7 | 6.1 | 0.00 | 0.00 | 0.00 | 94 | 1015.0 |
| 20260504223037 | 66 | 26 | 2.6 | 6.1 | 0.00 | 0.00 | 0.00 | 94 | 1014.9 |
| 20260504222527 | 66 | 33 | 2.6 | 6.1 | 0.00 | 0.00 | 0.00 | 94 | 1014.7 |
| 20260504222027 | 66 | 33 | 2.6 | 6.1 | 0.00 | 0.00 | 0.00 | 94 | 1014.8 |
| 20260504221538 | 66 | 29 | 2.6 | 6.1 | 0.00 | 0.00 | 0.00 | 94 | 1014.8 |
| 20260504221029 | 66 | 27 | 3.5 | 6.1 | 0.00 | 0.00 | 0.00 | 94 | 1014.8 |
| 20260504220612 | 66 | 43 | 2.6 | 6.1 | 0.00 | 0.00 | 0.00 | 94 | 1014.9 |
| 20260504220038 | 66 | 39 | 2.6 | 6.1 | 0.00 | 0.00 | 0.00 | 94 | 1014.8 |
| 20260504215528 | 66 | 32 | 2.6 | 7.8 | 0.00 | 0.00 | 0.00 | 94 | 1014.8 |
| 20260504215029 | 66 | 39 | 3.5 | 7.8 | 0.00 | 0.00 | 0.00 | 94 | 1014.9 |
| 20260504214547 | 66 | 36 | 2.6 | 7.0 | 0.00 | 0.00 | 0.00 | 94 | 1014.8 |
| 20260504214027 | 66 | 34 | 3.5 | 7.0 | 0.00 | 0.00 | 0.00 | 94 | 1014.7 |
| 20260504213528 | 66 | 50 | 3.5 | 6.1 | 0.00 | 0.00 | 0.00 | 94 | 1014.7 |
| 20260504213049 | 66 | 50 | 2.6 | 5.2 | 0.00 | 0.00 | 0.00 | 94 | 1014.6 |
| 20260504212528 | 66 | 44 | 2.6 | 6.1 | 0.00 | 0.00 | 0.00 | 94 | 1014.6 |
| 20260504212028 | 66 | 45 | 2.6 | 6.1 | 0.00 | 0.00 | 0.00 | 94 | 1014.7 |
| 20260504211540 | 66 | 35 | 2.6 | 5.2 | 0.00 | 0.00 | 0.00 | 95 | 1014.7 |
| 20260504211028 | 66 | 29 | 2.6 | 6.1 | 0.00 | 0.00 | 0.00 | 95 | 1014.7 |
| 20260504210528 | 66 | 38 | 2.6 | 6.1 | 0.00 | 0.00 | 0.00 | 95 | 1014.6 |
| 20260504210040 | 66 | 44 | 2.6 | 4.3 | 0.00 | 0.00 | 0.00 | 95 | 1014.5 |
| 20260504205528 | 66 | 35 | 1.7 | 4.3 | 0.00 | 0.00 | 0.00 | 95 | 1014.6 |
| 20260504205028 | 66 | 22 | 1.7 | 4.3 | 0.00 | 0.00 | 0.00 | 95 | 1014.6 |
| 20260504204535 | 66 | 16 | 1.7 | 4.3 | 0.00 | 0.00 | 0.00 | 95 | 1014.5 |
| 20260504204028 | 66 | 20 | 1.7 | 6.1 | 0.00 | 0.00 | 0.00 | 95 | 1014.5 |
| 20260504203528 | 66 | 4 | 1.7 | 6.1 | 0.00 | 0.00 | 0.00 | 95 | 1014.4 |
| 20260504203035 | 66 | 30 | 1.7 | 6.1 | 0.00 | 0.00 | 0.00 | 95 | 1014.2 |
| 20260504202528 | 66 | 18 | 1.7 | 7.8 | 0.00 | 0.00 | 0.00 | 95 | 1014.3 |
| 20260504202029 | 66 | 2 | 2.6 | 7.8 | 0.00 | 0.00 | 0.00 | 95 | 1014.3 |
| 20260504201537 | 66 | 15 | 1.7 | 7.0 | 0.00 | 0.00 | 0.00 | 95 | 1014.3 |
| 20260504201028 | 66 | 360 | 2.6 | 7.0 | 0.00 | 0.00 | 0.00 | 94 | 1014.2 |
| 20260504200528 | 66 | 357 | 0.9 | 6.1 | 0.00 | 0.00 | 0.00 | 94 | 1014.2 |
| 20260504200049 | 66 | 9 | 1.7 | 7.8 | 0.00 | 0.00 | 0.00 | 94 | 1014.2 |
| 20260504195527 | 66 | 360 | 2.6 | 7.8 | 0.00 | 0.00 | 0.00 | 93 | 1014.2 |
| 20260504195028 | 66 | 348 | 3.5 | 8.7 | 0.00 | 0.00 | 0.00 | 93 | 1014.4 |
| 20260504194541 | 67 | 354 | 3.5 | 8.7 | 0.00 | 0.00 | 0.00 | 92 | 1014.3 |
| 20260504194203 | 67 | 356 | 2.6 | 8.7 | 0.00 | 0.00 | 0.00 | 91 | 1014.3 |
| 20260504193529 | 67 | 343 | 3.5 | 9.6 | 0.00 | 0.00 | 0.00 | 91 | 1014.4 |
| 20260504193035 | 68 | 337 | 4.3 | 10.4 | 0.00 | 0.00 | 0.00 | 90 | 1014.4 |
| 20260504192528 | 68 | 345 | 4.3 | 10.4 | 0.00 | 0.00 | 0.00 | 89 | 1014.3 |
| 20260504192028 | 68 | 347 | 3.5 | 8.7 | 0.00 | 0.00 | 0.00 | 88 | 1014.3 |
| 20260504191550 | 69 | 341 | 2.6 | 7.8 | 0.00 | 0.00 | 0.00 | 87 | 1014.5 |
| 20260504191028 | 69 | 318 | 2.6 | 8.7 | 0.00 | 0.00 | 0.00 | 86 | 1014.6 |
| 20260504190528 | 69 | 337 | 2.6 | 10.4 | 0.00 | 0.00 | 0.00 | 85 | 1014.5 |
| 20260504190038 | 70 | 351 | 2.6 | 12.2 | 0.00 | 0.00 | 0.00 | 83 | 1014.4 |
| 20260504185528 | 70 | 318 | 4.3 | 12.2 | 0.00 | 0.00 | 0.00 | 81 | 1014.4 |
| 20260504185028 | 71 | 333 | 3.5 | 8.7 | 0.00 | 0.00 | 0.00 | 80 | 1014.3 |
| 20260504184552 | 71 | 325 | 1.7 | 8.7 | 0.00 | 0.00 | 0.00 | 80 | 1014.4 |
| 20260504184028 | 72 | 321 | 0.9 | 4.3 | 0.00 | 0.00 | 0.00 | 79 | 1014.4 |
| 20260504183527 | 72 | 308 | 0.9 | 5.2 | 0.00 | 0.00 | 0.00 | 79 | 1014.5 |
| 20260504183044 | 72 | 293 | 1.7 | 5.2 | 0.00 | 0.00 | 0.00 | 78 | 1014.4 |
| 20260504182527 | 72 | 285 | 0.9 | 5.2 | 0.00 | 0.00 | 0.00 | 78 | 1014.5 |
| 20260504182027 | 72 | 303 | 0.9 | 5.2 | 0.00 | 0.00 | 0.00 | 78 | 1014.3 |
| 20260504181544 | 72 | 0 | 0.9 | 3.5 | 0.00 | 0.00 | 0.00 | 78 | 1014.2 |
| 20260504181028 | 72 | 0 | 0.9 | 3.5 | 0.00 | 0.00 | 0.00 | 77 | 1014.1 |
| 20260504180528 | 73 | 314 | 0.9 | 3.5 | 0.00 | 0.00 | 0.00 | 77 | 1014.1 |
| 20260504180036 | 73 | 0 | 0.0 | 3.5 | 0.00 | 0.00 | 0.00 | 76 | 1014.1 |
| 20260504175527 | 73 | 295 | 0.9 | 3.5 | 0.00 | 0.00 | 0.00 | 75 | 1014.0 |
| 20260504175030 | 73 | 310 | 0.9 | 3.5 | 0.00 | 0.00 | 0.00 | 74 | 1014.0 |
| 20260504174542 | 74 | 297 | 0.9 | 3.5 | 0.00 | 0.00 | 0.00 | 74 | 1014.1 |
| 20260504174028 | 74 | 310 | 0.9 | 5.2 | 0.00 | 0.00 | 0.00 | 73 | 1014.2 |
| 20260504173527 | 75 | 0 | 0.9 | 6.1 | 0.00 | 0.00 | 0.00 | 72 | 1014.3 |
| 20260504173037 | 75 | 349 | 2.6 | 7.8 | 0.00 | 0.00 | 0.00 | 72 | 1014.4 |
| 20260504172530 | 75 | 358 | 3.5 | 8.7 | 0.00 | 0.00 | 0.00 | 70 | 1014.3 |
| 20260504172028 | 76 | 337 | 4.3 | 8.7 | 0.00 | 0.00 | 0.00 | 71 | 1014.4 |
| 20260504171535 | 75 | 1 | 4.3 | 8.7 | 0.00 | 0.00 | 0.00 | 71 | 1014.4 |
| 20260504171028 | 75 | 320 | 3.5 | 7.8 | 0.00 | 0.00 | 0.00 | 74 | 1014.6 |
| 20260504170527 | 74 | 351 | 2.6 | 8.7 | 0.00 | 0.00 | 0.00 | 73 | 1014.7 |
| 20260504151029 | 74 | 356 | 3.5 | 8.7 | 0.00 | 0.00 | 0.00 | 73 | 1016.0 |
| 20260504150528 | 73 | 0 | 2.6 | 8.7 | 0.00 | 0.00 | 0.00 | 73 | 1016.0 |
| 20260504141027 | 69 | 0 | 0.9 | 4.3 | 0.00 | 0.00 | 0.00 | 79 | 1016.6 |
| 20260504140528 | 68 | 325 | 0.9 | 5.2 | 0.00 | 0.00 | 0.00 | 79 | 1016.9 |
| 20260504130528 | 63 | 54 | 2.6 | 6.1 | 0.00 | 0.00 | 0.00 | 83 | 1016.6 |
| 20260504110528 | 54 | 71 | 1.7 | 4.3 | 0.00 | 0.00 | 0.00 | 87 | 1016.0 |
| 20260504100609 | 53 | 70 | 0.9 | 3.5 | 0.00 | 0.00 | 0.00 | 85 | 1015.9 |
| 20260504081541 | 51 | 85 | 0.9 | 5.2 | 0.00 | 0.00 | 0.00 | 87 | 1015.8 |
| 20260504081029 | 51 | 78 | 0.9 | 6.1 | 0.00 | 0.00 | 0.00 | 87 | 1015.9 |
| 20260504080526 | 51 | 87 | 0.9 | 6.1 | 0.00 | 0.00 | 0.00 | 87 | 1015.7 |
| 20260504050528 | 51 | 74 | 1.7 | 5.2 | 0.00 | 0.00 | 0.00 | 91 | 1017.2 |
| 20260504045528 | 51 | 83 | 2.6 | 5.2 | 0.00 | 0.00 | 0.00 | 90 | 1017.2 |
| 20260504045028 | 51 | 85 | 1.7 | 5.2 | 0.00 | 0.00 | 0.00 | 90 | 1017.6 |
| 20260504044550 | 51 | 81 | 1.7 | 5.2 | 0.00 | 0.00 | 0.00 | 90 | 1017.7 |
| 20260504044031 | 51 | 77 | 1.7 | 5.2 | 0.00 | 0.00 | 0.00 | 90 | 1017.6 |
| 20260504043528 | 51 | 91 | 0.9 | 2.6 | 0.00 | 0.00 | 0.00 | 90 | 1017.6 |
| 20260504043039 | 51 | 89 | 0.0 | 2.6 | 0.00 | 0.00 | 0.00 | 90 | 1017.8 |
| 20260504042528 | 51 | 0 | 0.0 | 0.0 | 0.00 | 0.00 | 0.00 | 90 | 1017.8 |
| 20260504042027 | 51 | 0 | 0.0 | 0.0 | 0.00 | 0.00 | 0.00 | 89 | 1017.7 |
| 20260504041539 | 51 | 0 | 0.0 | 0.0 | 0.00 | 0.00 | 0.00 | 89 | 1017.8 |
| 20260504041027 | 51 | 0 | 0.0 | 0.0 | 0.00 | 0.00 | 0.00 | 88 | 1017.8 |
| 20260504040611 | 51 | 0 | 0.0 | 0.9 | 0.00 | 0.00 | 0.00 | 88 | 1017.8 |
| 20260504040059 | 52 | 0 | 0.0 | 2.6 | 0.00 | 0.00 | 0.00 | 88 | 1017.9 |
| 20260504035527 | 52 | 0 | 0.0 | 3.5 | 0.00 | 0.00 | 0.00 | 88 | 1017.9 |
| 20260504035027 | 52 | 61 | 0.9 | 3.5 | 0.00 | 0.00 | 0.00 | 88 | 1017.9 |
| 20260504034553 | 52 | 0 | 0.9 | 3.5 | 0.00 | 0.00 | 0.00 | 87 | 1017.8 |
| 20260504034026 | 52 | 59 | 0.0 | 3.5 | 0.00 | 0.00 | 0.00 | 87 | 1017.9 |
| 20260504033526 | 53 | 63 | 0.0 | 4.3 | 0.00 | 0.00 | 0.00 | 86 | 1018.0 |
| 20260504033110 | 53 | 77 | 1.7 | 4.3 | 0.00 | 0.00 | 0.00 | 86 | 1018.0 |
| 20260504032526 | 53 | 70 | 1.7 | 4.3 | 0.00 | 0.00 | 0.00 | 86 | 1018.1 |
| 20260504032026 | 53 | 51 | 1.7 | 3.5 | 0.00 | 0.00 | 0.00 | 85 | 1018.0 |
| 20260504031544 | 53 | 54 | 0.9 | 4.3 | 0.00 | 0.00 | 0.00 | 86 | 1018.1 |
| 20260504031026 | 53 | 46 | 1.7 | 4.3 | 0.00 | 0.00 | 0.00 | 86 | 1018.2 |
| 20260504030526 | 53 | 44 | 0.9 | 6.1 | 0.00 | 0.00 | 0.00 | 86 | 1018.2 |
| 20260504030045 | 53 | 41 | 1.7 | 6.1 | 0.00 | 0.00 | 0.00 | 86 | 1018.4 |
| 20260504025529 | 53 | 0 | 1.7 | 7.0 | 0.00 | 0.00 | 0.00 | 87 | 1018.3 |
| 20260504025030 | 53 | 62 | 2.6 | 7.0 | 0.00 | 0.00 | 0.00 | 87 | 1018.4 |
| 20260504024539 | 53 | 69 | 3.5 | 7.8 | 0.00 | 0.00 | 0.00 | 88 | 1018.4 |
| 20260504024028 | 52 | 47 | 3.5 | 7.8 | 0.00 | 0.00 | 0.00 | 88 | 1018.3 |
| 20260504023528 | 52 | 57 | 3.5 | 7.8 | 0.00 | 0.00 | 0.00 | 88 | 1018.4 |
| 20260504023058 | 52 | 55 | 4.3 | 9.6 | 0.00 | 0.00 | 0.00 | 88 | 1018.5 |